Location: Irvington District
(37.5227°N, 121.9716°W)
Time: 00:15:20
(UTC+00:00)

Daily predictions for brighter satellites

Satellite Brightness Start Highest point End
(mag) Time Altitude Azimuth Time Altitude Azimuth Time Altitude Azimuth
GP-B 3.1 02:30:07 10° N 02:34:35 79° E 02:39:00 10° S
SKYMED 2 4.4 02:30:41 10° N 02:34:57 57° WNW 02:39:11 10° SSW
ATLAS 5 CENTAUR R/B 3.2 02:32:40 10° NNW 02:35:50 37° ENE 02:44:39 10° SE
Okean 2 3.8 02:33:21 10° N 02:37:19 41° E 02:41:14 10° SSE
Cosmos 1943 3.7 02:36:04 10° N 02:41:22 40° ENE 02:46:39 10° SE
Cosmos 1975 2.8 02:41:44 10° S 02:45:47 78° E 02:49:53 10° N
CZ-4 R/B 1.5 02:44:02 10° SSE 02:48:15 88° ENE 02:52:28 10° NNW
Cosmos 1544 3.9 02:45:47 10° SSW 02:49:22 55° W 02:52:58 10° N
Tsikada Rocket 4.1 02:43:35 10° N 02:49:46 81° W 02:55:55 10° S
CSL-04 Debris 4.3 02:44:37 10° SSE 02:49:51 55° ENE 02:55:06 10° N
Cosmos 1898 Rocket 3.8 02:44:46 10° SSW 02:49:55 74° WNW 02:55:07 10° NNE
Cosmos 1782 Rocket 3.5 02:47:25 10° S 02:51:47 71° E 02:56:12 10° NNE
CZ-2C R/B 1.3 02:50:19 10° WSW 02:53:48 47° S 02:56:26 15° E
Cosmos 1908 Rocket 4.4 02:49:43 10° SSW 02:53:57 55° W 02:58:16 10° N
Meteor 1-21 4.3 02:49:55 10° N 02:55:25 55° ENE 03:00:53 10° SSE
Cosmos 1025 Rocket 4.5 02:55:51 10° NNE 02:58:57 19° ENE 03:00:45 15° ESE
CSL-04 Rocket 3.7 02:53:47 10° SSE 02:59:06 63° ENE 03:04:30 10° N
Cosmos 1603 3.7 02:55:37 10° NNW 03:01:17 69° ENE 03:06:51 10° SSE
Milstar 3 Cent rocket 3.8 02:57:52 10° SSW 03:02:56 20° S 03:06:06 12° SE
Cosmos 1842 3.2 03:01:59 10° N 03:05:51 88° E 03:09:43 10° S
Cosmos 372 Rocket 4.1 03:02:21 10° S 03:07:25 52° ESE 03:12:30 10° NNE
Cosmos 807 4.4 03:05:52 10° SSW 03:08:49 72° W 03:12:12 10° N
Cosmos 1891 Rocket 4.5 03:07:53 10° SSE 03:13:53 57° E 03:19:50 10° NNE
NOSS 2-2 (C) 3.3 03:11:48 10° SW 03:15:18 68° WNW 03:18:56 10° NNE
Cosmos 1937 Rocket 4.3 03:13:55 10° SSW 03:19:05 55° WNW 03:24:13 10° N
Cosmos 1707 3.1 03:16:04 10° N 03:19:43 41° E 03:21:45 22° SE
SJ-6B 3.9 03:19:57 23° ENE 03:20:03 23° ENE 03:23:01 10° NNE
Cosmos 2084 Rocket 3.5 03:15:41 10° NNW 03:20:10 77° ENE 03:23:22 19° SE
Cosmos 1975 Rocket 2.9 03:15:55 10° N 03:20:16 89° E 03:24:35 10° S
Cosmos 1125 Rocket 4.3 03:18:09 10° SSE 03:22:35 28° E 03:27:03 10° NE
MOS 1 Rocket 3.1 03:18:45 10° N 03:23:12 87° WNW 03:27:29 10° SSW
ISS -2.8 03:20:03 10° WSW 03:23:19 48° NW 03:26:13 13° NE
Resurs 01 Rocket 3.9 03:27:09 10° NE 03:27:09 10° NE 03:27:14 10° NE
Sich 1 Rocket 3.9 03:27:06 10° SSW 03:31:32 70° W 03:36:04 10° N
Cosmos 1437 4.0 03:30:09 10° NNW 03:32:58 38° W 03:35:46 10° SSW
Cosmos 1072 Rocket 4.5 03:30:50 10° S 03:37:02 89° W 03:43:22 10° N
USA 102 4.4 03:37:52 35° SSE 03:40:12 90° WSW 03:45:43 10° NNW
USA 234 3.2 03:34:09 10° NE 03:40:39 66° SE 03:47:09 10° SW
H-2A R/B 2.4 03:36:09 10° S 03:41:00 62° W 03:45:59 10° NNW
Cosmos 2034 Rocket 4.0 03:37:03 10° S 03:43:20 66° E 03:49:38 10° NNE
Nadezhda 4 Rocket 4.1 03:38:52 10° N 03:44:49 51° E 03:47:45 29° SE
SL-08 RB Rocket 3.6 03:43:25 23° SSE 03:46:15 79° ENE 03:50:50 10° N
ARGOS 3.2 03:41:12 10° S 03:46:32 77° WSW 03:51:55 10° NNW
Cosmos 1174 4.3 03:42:06 10° SSW 03:46:40 88° ESE 03:52:34 10° NNE
In-Cosmos 22 4.0 03:41:30 10° N 03:46:46 66° E 03:49:36 28° SSE
Okean 2 Rocket 3.4 03:46:38 10° SSW 03:51:06 68° W 03:55:35 10° N
BREEZE-M DEB (TANK) 3.9 03:49:19 10° WSW 03:52:21 60° NNW 04:01:30 10° NE
CZ-2C R/B 2.6 03:49:14 10° NNE 03:54:49 85° ESE 04:00:25 10° SSW
Cosmos 1048 Rocket 4.4 03:50:06 10° N 03:55:10 43° ENE 03:55:33 42° E
USA 186 2.3 03:57:54 54° NW 03:57:54 54° NW 04:00:32 10° NNW
MOS 1 4.2 03:56:46 34° SSE 03:59:21 73° ENE 04:05:03 10° N
Cosmos 1844 3.6 03:55:18 10° S 04:00:58 66° ESE 04:06:35 10° NNE
Cosmos 1300 Rocket 4.4 03:58:20 10° SSW 04:02:35 50° W 04:06:53 10° N
DELTA 2 R/B (1) 3.8 04:01:54 10° WNW 04:07:20 58° SSW 04:08:23 49° SSE
Cosmos 1844 Rocket 2.7 04:06:13 10° SSW 04:11:46 80° WNW 04:17:23 10° NNE
Ariane Rocket 3.2 04:11:02 35° S 04:13:10 70° WSW 04:18:15 10° NNW
ATLAS 2AS CENTAUR R/B 3.1 04:09:12 10° S 04:16:37 48° ESE 04:24:09 10° NE
Cosmos 1634 Rocket 4.2 04:17:30 48° ENE 04:17:30 48° ENE 04:22:36 10° NNE
OBJECT-B 3.6 04:20:34 13° N 04:20:34 13° N 04:21:01 10° N
Cosmos 2285 Rocket 3.8 04:15:58 10° SSW 04:22:14 84° ESE 04:28:36 10° NNE
Cosmos 1536 Rocket 3.9 04:19:56 10° NNW 04:24:20 63° W 04:24:21 63° W
SPOT 3 Rocket 3.8 04:26:58 56° NNE 04:26:58 56° NNE 04:31:11 10° N
Meteor 1-15 Rocket 4.4 04:22:43 10° SSW 04:28:16 69° W 04:33:57 10° N
MetOp-A 4.5 04:30:38 49° SSW 04:31:50 62° WSW 04:37:09 10° NNW
CZ-2C R/B 3.5 04:29:52 10° W 04:30:47 17° WSW 04:30:47 17° WSW
CENTAUR R/B 3.4 04:25:17 10° NNW 04:33:17 51° NE 04:34:28 49° ENE
ATLAS 3B R/B 4.3 04:34:06 10° N 04:39:00 20° NE 04:39:00 20° NE
Cosmos 1867 4.4 04:37:05 10° NW 04:42:12 42° WSW 04:42:46 41° SW
USA 238 DEB 3.7 04:35:02 10° NNW 04:42:22 78° ENE 04:42:53 74° E
USA 238 3.7 04:35:08 10° NNW 04:42:28 77° ENE 04:42:58 74° E
Cosmos 1092 Rocket 3.9 04:37:28 10° N 04:43:35 86° WNW 04:43:35 86° WNW
Cosmos 2195 Rocket 4.5 04:40:19 10° N 04:46:03 76° N 04:46:03 76° N
Meteor 2-13 Rocket 4.5 04:43:13 10° N 04:49:22 75° W 04:49:24 75° W
Cosmos 2026 Rocket 4.2 04:44:22 10° N 04:49:46 65° NNE 04:49:46 65° NNE
Resurs 01 Rocket 3.8 05:04:43 22° NNW 05:04:43 22° NNW 05:06:20 10° NNW
Meteor 2-5 Rocket 4.5 04:58:52 10° NNW 05:03:02 49° NNW 05:03:02 49° NNW
NOSS 3-2 (A) 4.2 05:02:44 10° NW 05:10:32 69° WSW 05:11:00 68° SW
USA 234 4.4 05:17:28 10° NNE 05:23:22 37° NNW 05:29:16 10° W
ATLAS 2AS CENTAUR R/B 4.0 06:00:21 10° WSW 06:07:45 41° NW 06:15:10 10° NNE
CENTAUR R/B 4.3 06:16:16 10° NW 06:21:40 35° WNW 06:21:40 35° WNW
Cosmos 1697 Rocket 3.8 11:01:19 37° N 11:01:19 37° N 11:04:41 10° NNE
Cosmos 1980 Rocket 2.8 11:04:19 53° ENE 11:04:19 53° ENE 11:08:56 10° NNE
SL-16 R/B 4.4 11:13:21 11° SE 11:17:14 21° E 11:21:22 10° NE
Spot 4 Rocket 4.4 11:18:01 10° NNE 11:22:08 58° NNE 11:22:08 58° NNE
Lacrosse 5 3.1 11:27:59 31° N 11:27:59 31° N 11:31:26 10° NNE
Cosmos 1238 Rocket 4.4 11:22:27 10° N 11:29:00 62° E 11:34:53 10° SSE
Cosmos 921 Rocket 4.0 11:32:00 42° E 11:32:00 42° E 11:35:40 10° NNE
NOSS 3-3 (A) 3.9 11:32:28 60° SSE 11:33:14 68° ESE 11:39:25 10° NE
NOSS 3-3 (C) 3.9 11:32:38 60° SSE 11:33:23 67° ESE 11:39:29 10° NE
Cosmos 44 3.7 11:37:02 50° NNE 11:37:02 50° NNE 11:40:29 10° NNE
USA 267 4.1 11:32:04 10° NNE 11:37:47 34° NNW 11:38:59 31° NW
Cosmos 972 4.4 11:38:26 78° N 11:38:26 78° N 11:43:02 10° NNE
Cosmos 2228 Rocket 3.4 11:38:52 62° E 11:38:52 62° E 11:43:05 10° NNE
Cosmos 1821 Rocket 4.4 11:34:31 10° NNW 11:39:20 46° NW 11:39:20 46° NW
X-37B 3.3 11:42:47 17° NNE 11:42:47 17° NNE 11:44:08 10° NE
Meteor 1-4 Rocket 4.4 11:43:45 25° ESE 11:44:28 27° E 11:47:26 10° NE
ADEOS II 4.1 11:42:48 10° NNW 11:44:02 14° NNW 11:44:02 14° NNW
